EA3IK-1 Weather Reports


time (UTC)temp
C
wind
direction
speed
KPH
gust
KPH
rain 1hr
cm
rain 24hr
cm
rain mn
cm
humidity
%
barometer
mb
20260506174806 17 302 11.3 14.5 0.00 0.00 0.00 66 1010.3
20260506173305 18 300 8.0 12.9 0.00 0.00 0.00 66 1010.2
20260506171804 18 260 6.4 12.9 0.00 0.00 0.00 65 1010.0
20260506170303 18 298 8.0 14.5 0.00 0.00 0.00 65 1009.9
20260506164802 18 296 9.7 19.3 0.00 0.03 0.00 65 1009.8
20260506163301 18 297 9.7 20.9 0.00 0.03 0.00 65 1009.8
20260506161800 18 298 16.1 22.5 0.00 0.03 0.00 64 1009.6
20260506160300 20 335 11.3 22.5 0.00 0.03 0.00 58 1009.5
20260506154759 22 0 0.0 3.2 0.00 0.20 0.00 48 1009.4
20260506153258 22 33 3.2 9.7 0.00 0.20 0.00 47 1009.5
20260506151757 23 93 3.2 11.3 0.00 0.20 0.00 47 1009.6
20260506150302 23 75 1.6 6.4 0.00 0.20 0.00 47 1009.8
20260506144755 22 107 3.2 9.7 0.00 0.23 0.00 48 1009.8
20260506143254 22 10 1.6 6.4 0.00 0.23 0.00 46 1009.9
20260506141754 22 16 3.2 12.9 0.00 0.23 0.00 47 1010.1
20260506140253 22 46 6.4 17.7 0.00 0.23 0.00 48 1010.2
20260506134752 22 31 3.2 16.1 0.00 0.23 0.00 47 1010.3
20260506133251 22 0 4.8 11.3 0.00 0.23 0.00 49 1010.4
20260506131750 22 88 3.2 6.4 0.00 0.23 0.00 48 1010.7
20260506130249 22 66 3.2 11.3 0.00 0.23 0.00 49 1010.8
20260506124748 22 111 3.2 11.3 0.00 0.23 0.00 49 1010.8
20260506123248 22 28 3.2 14.5 0.00 0.23 0.00 49 1010.9
20260506121747 22 109 3.2 9.7 0.00 0.23 0.00 49 1011.0
20260506120246 22 9 1.6 9.7 0.00 0.23 0.00 53 1011.1
20260506114745 21 335 3.2 12.9 0.00 0.23 0.00 54 1011.1
20260506113244 21 251 4.8 11.3 0.00 0.23 0.00 56 1011.2
20260506111743 22 136 1.6 6.4 0.00 0.23 0.00 51 1011.4
20260506110242 21 5 1.6 9.7 0.00 0.23 0.00 54 1011.6
20260506104742 20 114 3.2 11.3 0.00 0.23 0.23 56 1011.6
20260506103241 20 137 3.2 8.0 0.00 0.23 0.23 55 1011.8
20260506101740 19 146 3.2 6.4 0.00 0.23 0.23 58 1012.0
20260506100239 18 123 4.8 12.9 0.00 0.23 0.23 59 1012.1
20260506094738 17 96 3.2 8.0 0.00 0.23 0.23 65 1012.3
20260506093237 16 237 3.2 11.3 0.00 0.23 0.23 67 1012.4
20260506091737 17 155 1.6 6.4 0.00 0.23 0.23 66 1012.6
20260506090236 16 211 3.2 8.0 0.00 0.23 0.23 65 1012.6
20260506084735 15 201 3.2 4.8 0.00 0.23 0.23 64 1012.6
20260506083234 14 222 6.4 12.9 0.00 0.23 0.23 64 1012.5
20260506081733 14 219 6.4 17.7 0.00 0.23 0.23 62 1012.3
20260506080232 14 209 8.0 19.3 0.00 0.23 0.23 62 1012.2
20260506073231 13 116 6.4 20.9 0.00 0.23 0.23 55 1012.1
20260506071730 12 213 6.4 11.3 0.00 0.23 0.23 53 1012.2
20260506070229 11 217 6.4 16.1 0.00 0.23 0.23 53 1012.3
20260506061726 11 194 3.2 11.3 0.00 0.23 0.23 47 1012.2
20260506060225 11 214 1.6 4.8 0.00 0.23 0.23 45 1012.1
20260506050222 9 133 0.0 0.0 0.00 0.23 0.23 44 1011.6
20260506044721 9 134 1.6 4.8 0.00 0.23 0.23 44 1011.4
20260506043220 9 139 1.6 4.8 0.00 0.23 0.23 43 1011.5
20260506041719 10 140 0.0 3.2 0.00 0.23 0.23 42 1011.3
20260506040219 10 147 0.0 4.8 0.00 0.23 0.23 40 1011.2
20260506034718 9 130 1.6 4.8 0.00 0.23 0.23 40 1011.2
20260506033217 10 91 0.0 4.8 0.00 0.23 0.23 38 1011.1
20260506031716 10 15 0.0 0.0 0.00 0.23 0.23 38 1011.0
20260506030216 9 16 0.0 0.0 0.00 0.23 0.23 39 1011.0
20260506024714 10 346 0.0 3.2 0.00 0.23 0.23 38 1010.8
20260506023214 9 333 0.0 4.8 0.00 0.23 0.23 39 1011.0
20260506021713 9 333 0.0 1.6 0.00 0.23 0.23 39 1010.9
20260506020212 10 333 1.6 3.2 0.00 0.23 0.23 39 1010.7
20260506014711 10 161 3.2 11.3 0.00 0.23 0.23 37 1010.6
20260506013210 10 290 0.0 3.2 0.00 0.23 0.23 38 1010.6
20260506011709 10 287 0.0 4.8 0.00 0.23 0.23 38 1010.5
20260506010208 10 34 0.0 6.4 0.00 0.23 0.23 40 1010.8
20260506004707 11 131 0.0 4.8 0.00 0.23 0.23 38 1010.9
20260506003207 11 150 1.6 4.8 0.00 0.23 0.23 37 1011.0
20260506001706 11 101 0.0 3.2 0.00 0.23 0.23 37 1011.0
20260506000205 11 101 0.0 0.0 0.00 0.23 0.23 38 1011.1
20260505234704 11 113 0.0 0.0 0.00 0.23 0.23 37 1011.0
20260505233203 11 115 0.0 4.8 0.00 0.23 0.23 37 1011.0
20260505231702 11 168 0.0 0.0 0.00 0.23 0.23 36 1011.0
20260505230201 11 265 0.0 0.0 0.00 0.23 0.23 36 1010.9
20260505224701 11 265 1.6 3.2 0.00 0.23 0.23 37 1010.9
20260505223200 11 355 0.0 3.2 0.00 0.23 0.23 38 1011.1
20260505221659 11 9 0.0 1.6 0.00 0.23 0.23 40 1011.4
20260505220158 12 9 1.6 4.8 0.00 0.23 0.23 42 1011.5
20260505214657 13 159 0.0 0.0 0.00 0.25 0.23 39 1011.5
20260505213156 12 150 0.0 6.4 0.00 0.25 0.23 40 1011.5
20260505211656 12 117 0.0 3.2 0.00 0.25 0.23 40 1011.5
20260505210155 13 117 0.0 1.6 0.00 0.25 0.23 38 1011.4
20260505204654 13 117 1.6 4.8 0.00 0.25 0.23 38 1011.5
20260505203153 12 115 0.0 0.0 0.00 0.25 0.23 38 1011.0
20260505201652 13 116 0.0 1.6 0.00 0.25 0.23 38 1010.9
20260505200151 12 116 0.0 0.0 0.00 0.25 0.23 39 1010.7
20260505194650 13 116 0.0 0.0 0.00 0.41 0.23 40 1010.4
20260505193150 13 188 0.0 1.6 0.00 0.41 0.23 41 1010.3
20260505191649 13 183 3.2 11.3 0.00 0.41 0.23 37 1009.9
20260505190148 13 183 1.6 6.4 0.00 0.41 0.23 35 1009.8
20260505184647 13 183 1.6 6.4 0.00 0.43 0.23 34 1009.9
20260505183146 13 136 0.0 4.8 0.00 0.43 0.23 34 1009.9
20260505181645 13 175 0.0 3.2 0.00 0.43 0.23 34 1009.9
20260505180144 13 107 0.0 3.2 0.00 0.43 0.23 34 1010.0